Location: Albany
(35.0170°S, 117.8920°E)
Time: 16:58:22
(UTC+08:00)

Explorer 11/Cluster Stage 4 - Pass Details

Date: 28 January 2021
Orbit: 467 x 1257 km, 28.8° (Epoch: 02 March)

Event Time Altitude Azimuth Distance (km) Brightness Sun altitude
Rises 07:58:46 0° 291° (WNW) 3,902 9.6 30.0°
Reaches altitude 10° 08:01:54 10° 296° (WNW) 2,828 9.0 30.6°
Maximum altitude 08:08:19 44° 5° (N) 1,212 8.0 32.0°
Drops below altitude 10° 08:13:31 10° 76° (ENE) 2,289 10.3 33.0°
Sets 08:15:49 0° 83° (E) 3,094 10.7 33.5°
